[[{"header":{"parameterUnit":"m.s-1","parameterCategory":1,"la1":30.2991,"la2":30.254,"lo1":-89.0895,"lo2":-89.0444,"dy":0.0017,"dx":0.0017,"nx":28,"ny":28,"refTime":"2025-01-11T03:00:00:Z","depth":0,"parameterNumber":2,"parameterNumberName":"U-component_of_WINDS"},"data":[0,0,0,0,0,0,0,0,0,0,0,0,0,0,0,0,0,0,0,0,0,0,0,0,0,0,0,0,0,0,0,0,0,0,0,0,0,0,0,0,0,0,0,0,0,0,0,0,0,0,0,0,0,0,0,0,0,0,3.004,3.004,0,3.0086,3.0086,3.0087,3.0051,3.005,3.0048,3.0047,3.0091,3.0093,3.0096,0,0,0,0,0,0,0,0,0,0,0,0,0,2.9919,2.9922,3.004,3.004,3.0041,3.0086,3.0086,3.0087,3.0051,3.005,3.0048,3.0046,3.009,3.0093,3.0096,0,0,0,0,0,0,0,0,0,0,0,0,0,2.9969,2.9923,3.004,3.0029,3.0028,3.0086,3.0086,3.0087,3.0052,3.0049,3.0047,3.0045,3.0089,3.0093,3.0097,3.0167,0,0,3.0109,3.011,0,0,0,0,0,0,0,0,2.9966,2.9974,3.003,3.003,3.0029,3.006,3.006,3.0114,3.0052,3.0043,3.0047,3.0044,3.0082,3.0087,3.01,3.0169,3.0171,3.0109,3.0111,3.0113,3.0114,0,0,0,0,0,0,0,2.9963,2.9971,3.0058,3.0031,3.003,3.0021,3.0025,3.007,3.0075,3.0043,3.0041,3.0047,3.0082,3.0097,3.0101,3.0171,3.0109,3.0112,3.0115,3.0116,3.0301,3.0303,0,0,0,0,0,0,2.9961,2.9969,3.0056,3.0059,2.9992,3.0025,3.003,3.0053,3.0074,3.0075,3.0049,3.0045,3.0091,3.0097,3.0102,3.0186,3.0113,3.0117,3.0119,3.0298,3.0301,3.0304,0,0,0,0,0,0,2.9958,2.9969,3.0055,3.0013,3.0024,3.0029,3.0055,3.0055,3.007,3.0078,3.0079,3.0063,3.0089,3.0097,3.0151,3.0187,3.0118,3.0122,3.0295,3.0299,3.0303,3.0355,0,0,0,0,0,0,2.9955,2.9968,2.9995,3.0014,3.0026,3.0103,3.0057,3.0057,3.0077,3.0072,3.0092,3.0093,3.0088,3.0146,3.0155,3.0192,3.0125,3.0292,3.0297,3.0301,3.035,3.036,3.0368,0,0,0,0,0,2.9951,3.0007,2.9997,3.0008,3.006,3.0105,3.0112,3.0106,3.008,3.0107,3.0113,3.0092,3.0182,3.0152,3.0162,3.02,3.0289,3.0295,3.0301,3.0345,3.0358,3.0368,0,0,0,0,0,0,2.999,3.0009,2.9998,3.0062,3.0083,3.0099,3.0133,3.0119,3.0147,3.0141,3.0132,3.0137,3.0194,3.0202,3.0168,3.027,3.0232,3.024,3.0262,3.0274,3.0283,3.0279,3.0128,0,0,0,0,0,3.0007,3.0043,3.0057,3.0113,3.0124,3.0127,3.0146,3.0141,3.0161,3.0169,3.0179,3.0199,3.0231,3.0253,3.0284,3.0351,3.0355,3.0383,3.0392,3.04,3.0406,3.0444,3.0456,3.0323,3.0323,3.0323,0,0,3.0041,3.0056,3.0079,3.0121,3.0136,3.0174,3.0134,3.0175,3.0203,3.0175,3.0227,3.0235,3.0257,3.0319,3.0346,3.0327,3.0444,3.0407,3.0413,3.0416,3.0451,3.0463,3.0475,3.0327,3.0326,3.0325,0,0,3.0121,3.0136,3.0185,3.0201,3.0225,3.0227,3.0239,3.0259,3.0263,3.0316,3.0296,3.0329,3.0385,3.0402,3.0418,3.0507,3.049,3.0518,3.0566,3.0602,3.0613,3.0622,3.0654,3.0666,3.0525,3.0525,3.0525,0,3.016,3.0216,3.0211,3.0254,3.0273,3.0252,3.03,3.0316,3.0349,3.0362,3.0341,3.0413,3.0426,3.0492,3.0514,3.0527,3.054,3.0515,3.0612,3.0621,3.063,3.066,3.0673,3.0528,3.0528,3.0527,3.0527,0,3.0263,3.0302,3.0338,3.0372,3.0395,3.0441,3.0442,3.0466,3.0459,3.0463,3.0518,3.0533,3.0567,3.0582,3.0575,3.0648,3.0635,3.0613,3.0575,3.0646,3.0674,3.0686,3.0532,3.0531,3.053,3.053,0,0,3.0368,3.04,3.0413,3.0428,3.0455,3.0485,3.053,3.0564,3.0585,3.0609,3.0646,3.0696,3.0676,3.0695,3.0689,3.0721,3.0792,3.0695,3.0696,3.0713,3.0873,3.0889,3.0903,3.0781,3.0783,3.0785,3.0872,0,3.045,3.0529,3.0526,3.06,3.0637,3.0618,3.0657,3.0677,3.0683,3.0715,3.0721,3.0756,3.0727,3.0738,3.077,3.0777,3.0824,3.077,3.0815,3.0817,3.081,3.0918,3.0935,3.1016,3.0883,3.0885,3.0886,0,3.0556,3.0585,3.0663,3.0685,3.07,3.0735,3.0768,3.0798,3.0821,3.0823,3.0845,3.0834,3.088,3.0841,3.0904,3.0868,3.0886,3.0892,3.0895,3.0899,3.0855,3.0924,3.1041,3.1053,3.0903,3.0902,3.0901,0,3.0625,3.0683,3.0738,3.0752,3.0779,3.0804,3.0817,3.0837,3.0859,3.0887,3.0901,3.0933,3.0951,3.0976,3.0975,3.0947,3.1039,3.1,3.1041,3.1042,3.1061,3.1059,3.1182,3.1073,3.1073,3.1073,3.1073,0,3.0716,3.0765,3.0769,3.0803,3.0857,3.0853,3.0907,3.0916,3.0935,3.097,3.0956,3.0988,3.0985,3.1018,3.1018,3.107,3.1078,3.1081,3.108,3.1082,3.1082,3.1093,3.1087,3.1076,3.1076,3.1075,3.1074,0,3.0802,3.0807,3.0865,3.0887,3.0894,3.0933,3.0951,3.0983,3.0988,3.1033,3.1043,3.1051,3.1089,3.1091,3.1135,3.1134,3.1198,3.1191,3.1191,3.1189,3.1231,3.1227,3.1365,3.1383,3.1263,3.1264,3.1265,0,3.086,3.0897,3.0924,3.0947,3.0961,3.0998,3.102,3.1019,3.1043,3.1073,3.1101,3.1138,3.1168,3.123,3.124,3.1274,3.1267,3.1313,3.1272,3.1273,3.1268,3.1265,3.1269,3.1321,3.1322,3.1323,3.1324,0,3.0962,3.0963,3.0997,3.1032,3.1059,3.1086,3.1111,3.1131,3.1133,3.116,3.12,3.1223,3.1269,3.1307,3.134,3.1352,3.1339,3.1338,3.1349,3.1351,3.1349,3.1351,3.1213,3.1334,3.1333,3.1332,3.1332,3.1331,3.1035,3.1068,3.1092,3.113,3.115,3.1174,3.1206,3.1216,3.1249,3.1287,3.1285,3.1329,3.1352,3.1396,3.1411,3.1445,3.1429,3.1446,3.145,3.1454,3.1458,3.1345,3.1451,3.1451,3.1451,3.145,3.145,0,3.1137,3.1152,3.1188,3.1224,3.1254,3.1241,3.1268,3.1294,3.1334,3.1357,3.1387,3.1434,3.1471,3.1484,3.152,3.1545,3.154,3.1554,3.1552,3.1555,3.147,3.1457,3.1558,3.1558,3.1558,3.1558,3.1558,3.1558,3.1193,3.1248,3.1253,3.1317,3.1332,3.1376,3.1393,3.1416,3.1434,3.1487,3.1518,3.1527,3.1547,3.1584,3.1617,3.162,3.1634,3.1651,3.1651,3.1572,3.1561,3.1551,3.1538,3.1654,3.1654,3.1733,3.1734,3.1734]},{"header":{"parameterUnit":"m.s-1","parameterCategory":1,"la1":30.2991,"la2":30.254,"lo1":-89.0895,"lo2":-89.0444,"dy":0.0017,"dx":0.0017,"nx":28,"ny":28,"refTime":"2025-01-11T03:00:00:Z","depth":0,"parameterNumber":3,"parameterNumberName":"V-component_of_WINDS"},"data":[0,0,0,0,0,0,0,0,0,0,0,0,0,0,0,0,0,0,0,0,0,0,0,0,0,0,0,0,0,0,0,0,0,0,0,0,0,0,0,0,0,0,0,0,0,0,0,0,0,0,0,0,0,0,0,0,0,0,-5.5567,-5.5569,0,-5.5745,-5.5747,-5.5749,-5.5735,-5.5733,-5.573,-5.5727,-5.5907,-5.5914,-5.5921,0,0,0,0,0,0,0,0,0,0,0,0,0,-5.5212,-5.5218,-5.5567,-5.5569,-5.5571,-5.5745,-5.5747,-5.5749,-5.5736,-5.5732,-5.5729,-5.5726,-5.5904,-5.5913,-5.5922,0,0,0,0,0,0,0,0,0,0,0,0,0,-5.5375,-5.522,-5.5566,-5.5585,-5.5589,-5.5744,-5.5747,-5.575,-5.5736,-5.5732,-5.5728,-5.5725,-5.5902,-5.5912,-5.5923,-5.607,0,0,-5.5956,-5.5961,0,0,0,0,0,0,0,0,-5.5366,-5.5388,-5.558,-5.5584,-5.5588,-5.5714,-5.5688,-5.5857,-5.5737,-5.568,-5.5727,-5.5723,-5.5846,-5.5861,-5.5903,-5.6078,-5.6086,-5.5957,-5.5964,-5.5968,-5.5971,0,0,0,0,0,0,0,-5.5355,-5.5381,-5.5637,-5.5583,-5.5588,-5.5584,-5.5603,-5.572,-5.5783,-5.5685,-5.5684,-5.5706,-5.5847,-5.5892,-5.5907,-5.6089,-5.5957,-5.5966,-5.5973,-5.5977,-5.6393,-5.6398,0,0,0,0,0,0,-5.5339,-5.5371,-5.5631,-5.5642,-5.5465,-5.5594,-5.5615,-5.5678,-5.5782,-5.5794,-5.5709,-5.5704,-5.5876,-5.5894,-5.5913,-5.6093,-5.5968,-5.5979,-5.5985,-5.6389,-5.6394,-5.6399,0,0,0,0,0,0,-5.5332,-5.5363,-5.5624,-5.5507,-5.554,-5.5604,-5.5675,-5.5683,-5.5729,-5.58,-5.5811,-5.5744,-5.5873,-5.5898,-5.6031,-5.6098,-5.5983,-5.5993,-5.6384,-5.6391,-5.6397,-5.6452,0,0,0,0,0,0,-5.5322,-5.536,-5.5418,-5.5508,-5.5546,-5.574,-5.5679,-5.569,-5.5748,-5.5744,-5.5836,-5.5847,-5.5872,-5.6015,-5.6042,-5.6111,-5.6002,-5.6378,-5.6387,-5.6395,-5.6444,-5.646,-5.6473,0,0,0,0,0,-5.5309,-5.5425,-5.5421,-5.5452,-5.5619,-5.5744,-5.5766,-5.5793,-5.5753,-5.5811,-5.5857,-5.5844,-5.6087,-5.6029,-5.6059,-5.6133,-5.6374,-5.6384,-5.6394,-5.6438,-5.6457,-5.6472,0,0,0,0,0,0,-5.534,-5.5438,-5.5433,-5.5582,-5.5655,-5.5742,-5.5815,-5.5812,-5.5897,-5.5889,-5.5919,-5.594,-5.6074,-5.6116,-5.605,-5.628,-5.6225,-5.6242,-5.6248,-5.6266,-5.628,-5.6267,-5.6011,0,0,0,0,0,-5.5364,-5.5458,-5.5538,-5.5662,-5.5699,-5.5751,-5.5806,-5.5821,-5.5897,-5.5928,-5.5983,-5.6057,-5.615,-5.621,-5.6299,-5.645,-5.647,-5.6516,-5.653,-5.6541,-5.6555,-5.6638,-5.6659,-5.6433,-5.6433,-5.6432,0,0,-5.5415,-5.548,-5.5538,-5.567,-5.5728,-5.5824,-5.5777,-5.5881,-5.5952,-5.5943,-5.6073,-5.6116,-5.62,-5.6343,-5.6409,-5.6383,-5.6622,-5.6554,-5.6563,-5.6571,-5.6651,-5.6672,-5.6691,-5.644,-5.6438,-5.6437,0,0,-5.5557,-5.5616,-5.5725,-5.5785,-5.5874,-5.5908,-5.5934,-5.6021,-5.605,-5.6181,-5.6176,-5.6261,-5.642,-5.648,-5.6532,-5.6696,-5.6688,-5.6724,-5.6798,-5.6879,-5.6896,-5.6912,-5.6971,-5.6992,-5.6738,-5.6738,-5.6738,0,-5.5608,-5.5754,-5.5782,-5.5887,-5.5945,-5.5942,-5.6053,-5.6109,-5.6222,-5.6262,-5.6232,-5.6432,-5.6488,-5.6644,-5.6685,-5.6726,-5.6757,-5.6714,-5.6892,-5.6908,-5.6923,-5.698,-5.7002,-5.6742,-5.6741,-5.6741,-5.6741,0,-5.5813,-5.5914,-5.5992,-5.6103,-5.6169,-5.6277,-5.632,-5.6384,-5.6393,-5.6429,-5.6562,-5.663,-5.6732,-5.6771,-5.678,-5.6929,-5.691,-5.6886,-5.683,-5.6948,-5.7002,-5.7023,-5.6747,-5.6746,-5.6745,-5.6744,0,0,-5.598,-5.6104,-5.6132,-5.6183,-5.628,-5.6359,-5.6465,-5.6567,-5.6621,-5.6699,-5.6789,-5.6924,-5.6902,-5.696,-5.6976,-5.7046,-5.7172,-5.7013,-5.7016,-5.704,-5.734,-5.7358,-5.7382,-5.7167,-5.7171,-5.7175,-5.7333,0,-5.6132,-5.6322,-5.635,-5.6518,-5.6611,-5.661,-5.6702,-5.6772,-5.6809,-5.6893,-5.6933,-5.7028,-5.6992,-5.7027,-5.7097,-5.7142,-5.7233,-5.7131,-5.725,-5.7254,-5.723,-5.741,-5.743,-5.7576,-5.7354,-5.7357,-5.736,0,-5.6334,-5.6419,-5.6596,-5.6681,-5.6721,-5.6805,-5.69,-5.698,-5.7059,-5.7081,-5.7146,-5.7153,-5.7263,-5.7203,-5.7354,-5.7284,-5.7334,-5.7364,-5.737,-5.7382,-5.7314,-5.7427,-5.7623,-5.7645,-5.7393,-5.739,-5.7388,0,-5.6438,-5.6596,-5.6723,-5.6765,-5.6868,-5.6926,-5.6971,-5.7046,-5.7105,-5.7188,-5.7227,-5.7321,-5.7372,-5.7445,-5.7477,-5.743,-5.7626,-5.7568,-5.7646,-5.7646,-5.7688,-5.7685,-5.7894,-5.772,-5.772,-5.7719,-5.7719,0,-5.6605,-5.6713,-5.6771,-5.6848,-5.697,-5.7,-5.7119,-5.7162,-5.7228,-5.7314,-5.7318,-5.7397,-5.7435,-5.752,-5.7546,-5.7667,-5.769,-5.771,-5.7716,-5.771,-5.7708,-5.7744,-5.7734,-5.7725,-5.7724,-5.7723,-5.7722,0,-5.6741,-5.6784,-5.6922,-5.7008,-5.7032,-5.7117,-5.719,-5.7265,-5.7301,-5.741,-5.7437,-5.7493,-5.7594,-5.7633,-5.7756,-5.7773,-5.7913,-5.791,-5.7887,-5.7888,-5.7964,-5.7956,-5.8204,-5.8238,-5.8041,-5.8043,-5.8044,0,-5.6845,-5.6929,-5.7024,-5.7082,-5.7129,-5.7222,-5.7283,-5.7316,-5.7379,-5.7474,-5.7538,-5.7638,-5.7721,-5.7881,-5.7933,-5.8026,-5.8026,-5.8106,-5.804,-5.8032,-5.8027,-5.8022,-5.803,-5.8119,-5.8121,-5.8122,-5.8124,0,-5.7025,-5.7042,-5.713,-5.7225,-5.7298,-5.7374,-5.7449,-5.7496,-5.7539,-5.761,-5.7713,-5.7777,-5.7903,-5.8002,-5.8099,-5.8144,-5.8142,-5.8144,-5.8167,-5.8162,-5.8145,-5.8156,-5.792,-5.8138,-5.8137,-5.8136,-5.8135,-5.8134,-5.7148,-5.7223,-5.7301,-5.7399,-5.7458,-5.7528,-5.7602,-5.7648,-5.7735,-5.7841,-5.7855,-5.7966,-5.8041,-5.8171,-5.822,-5.8307,-5.8285,-5.8319,-5.8327,-5.8335,-5.834,-5.8132,-5.8324,-5.8324,-5.8323,-5.8323,-5.8323,0,-5.7328,-5.7379,-5.7468,-5.7573,-5.7649,-5.7641,-5.7722,-5.7787,-5.7885,-5.7956,-5.8037,-5.8156,-5.8253,-5.8312,-5.8409,-5.8466,-5.8468,-5.8491,-5.8487,-5.8497,-5.8354,-5.8324,-5.8488,-5.8488,-5.8488,-5.8488,-5.8488,-5.8488,-5.7431,-5.7556,-5.7582,-5.7736,-5.7786,-5.7896,-5.7943,-5.8007,-5.8064,-5.8197,-5.8277,-5.8315,-5.8382,-5.8483,-5.8571,-5.8586,-5.8622,-5.8647,-5.866,-5.8524,-5.8507,-5.8491,-5.8464,-5.8654,-5.8654,-5.8796,-5.8797,-5.8798]}]]